This is the latest recevied weather packets stored in our database for station/object KK4KTV-13. If no packets are shown the sender has not sent any weather packets the latest 10 day(s).
| Time | Temp. | Humidity | Pressure | Rain* | Wind** | Luminosity | Snow |
|---|---|---|---|---|---|---|---|
| 1777777856 | 5° C | 93% | 1017.5 hPa | 0 mm | - | 0 W/m² | - |
| 1777777552 | 5° C | 91% | 1017.7 hPa | 0 mm | - | 0 W/m² | - |
| 1777777249 | 5° C | 90% | 1017.5 hPa | 0 mm | - | 0 W/m² | - |
| 1777776945 | 5.56° C | 91% | 1017.5 hPa | 0 mm | - | 0 W/m² | - |
| 1777776644 | 5.56° C | 91% | 1017.6 hPa | 0 mm | - | 0 W/m² | - |
| 1777776339 | 5.56° C | 89% | 1017.8 hPa | 0 mm | - | 0 W/m² | - |
| 1777776037 | 6.11° C | 89% | 1017.6 hPa | 0 mm | - | 0 W/m² | - |
| 1777775733 | 6.11° C | 89% | 1017.5 hPa | 0 mm | - | 0 W/m² | - |
| 1777775431 | 6.67° C | 88% | 1017.4 hPa | 0 mm | - | 0 W/m² | - |
| 1777775126 | 6.67° C | 88% | 1017.2 hPa | 0 mm | - | 0 W/m² | - |
| 1777774821 | 6.67° C | 87% | 1017.2 hPa | 0 mm | - | 0 W/m² | - |
| 1777774519 | 6.67° C | 87% | 1017.4 hPa | 0 mm | - | 0 W/m² | - |
| 1777774215 | 6.67° C | 86% | 1017.3 hPa | 0 mm | - | 0 W/m² | - |
| 1777773913 | 6.67° C | 85% | 1017.4 hPa | 0 mm | - | 0 W/m² | - |
| 1777773609 | 6.67° C | 85% | 1017.4 hPa | 0 mm | - | 0 W/m² | - |
| 1777773306 | 6.67° C | 85% | 1017.1 hPa | 0 mm | - | 0 W/m² | - |
| 1777773003 | 6.67° C | 83% | 1017.1 hPa | 0 mm | - | 0 W/m² | - |
| 1777772699 | 6.67° C | 81% | 1017 hPa | 0 mm | - | 0 W/m² | - |
| 1777772397 | 7.22° C | 80% | 1017 hPa | 0 mm | - | 0 W/m² | - |
| 1777772094 | 7.78° C | 80% | 1017.1 hPa | 0 mm | - | 0 W/m² | - |
| 1777771791 | 8.33° C | 78% | 1016.9 hPa | 0 mm | - | 0 W/m² | - |
| 1777771489 | 8.89° C | 72% | 1017 hPa | 0 mm | - | 0 W/m² | - |
| 1777771185 | 8.89° C | 71% | 1016.8 hPa | 0 mm | - | 0 W/m² | - |
| 1777770882 | 9.44° C | 70% | 1016.5 hPa | 0 mm | - | 0 W/m² | - |
| 1777770579 | 9.44° C | 69% | 1016.6 hPa | 0 mm | - | 0 W/m² | - |
* Rain latest hour (hover to see other rain measurements)
** Current wind speed in m/s (hover to see current wind gust speed)